When you browse on this site, cookies collect data to enhance your experience and personalize the content and advertising you see.
Visit our Privacy Policy to learn more. By continuing to use the site, you agree to this use of cookies and data.
  • In Hungary
  • List of Countries
  • For 7 days
  • Water Temperature
  • Weather Map
  • News
  • Weather Widgets
  • user-avatar
    Login

    Hourly Weather Enid

    Today, 14 November, Thursday

    Time Temperature Precipitation Wind Pressure Humidity
    00:00 0°C° 0 mm 3 mps 732 mmHg 70%
    01:00 -1°C° 0 mm 4 mps 732 mmHg 70%
    02:00 -1°C° 0 mm 4 mps 733 mmHg 70%
    03:00 -1°C° 0 mm 4 mps 733 mmHg 77%
    04:00 -2°C° 0 mm 4 mps 734 mmHg 85%
    05:00 -2°C° 0 mm 4 mps 734 mmHg 92%
    06:00 -1°C° 0 mm 4 mps 735 mmHg 88%
    07:00 +1°C° 0 mm 4 mps 736 mmHg 83%
    08:00 +2°C° 0 mm 5 mps 736 mmHg 78%
    09:00 +5°C° 0 mm 4 mps 737 mmHg 73%
    10:00 +6°C° 0 mm 4 mps 737 mmHg 67%
    11:00 +8°C° 0 mm 4 mps 737 mmHg 61%
    12:00 +8°C° 0 mm 4 mps 737 mmHg 58%
    13:00 +10°C° 0 mm 3 mps 736 mmHg 56%
    14:00 +10°C° 0 mm 3 mps 736 mmHg 53%
    15:00 +8°C° 0 mm 2 mps 736 mmHg 60%
    16:00 +7°C° 0 mm 1 mps 736 mmHg 66%
    17:00 +4°C° 0 mm 0 mps 736 mmHg 73%
    18:00 +5°C° 0 mm 1 mps 736 mmHg 73%
    19:00 +5°C° 0 mm 1 mps 737 mmHg 73%
    20:00 +4°C° 0 mm 1 mps 737 mmHg 73%
    21:00 +4°C° 0 mm 1 mps 737 mmHg 74%
    22:00 +4°C° 0 mm 1 mps 737 mmHg 75%
    23:00 +2°C° 0 mm 2 mps 737 mmHg 77%

    Tomorrow, 15 November, Friday

    Time Temperature Precipitation Wind Pressure Humidity
    00:00 +2°C° 0 mm 2 mps 737 mmHg 78%
    01:00 +2°C° 0 mm 2 mps 737 mmHg 79%
    02:00 +2°C° 0 mm 2 mps 736 mmHg 81%
    03:00 +2°C° 0 mm 2 mps 736 mmHg 83%
    04:00 +1°C° 0 mm 2 mps 736 mmHg 85%
    05:00 +1°C° 0 mm 2 mps 736 mmHg 87%
    06:00 +3°C° 0 mm 2 mps 736 mmHg 83%
    07:00 +3°C° 0 mm 3 mps 736 mmHg 78%
    08:00 +4°C° 0 mm 3 mps 736 mmHg 74%
    09:00 +7°C° 0 mm 3 mps 736 mmHg 69%
    10:00 +10°C° 0 mm 4 mps 736 mmHg 64%
    11:00 +12°C° 0 mm 4 mps 736 mmHg 59%
    12:00 +12°C° 0 mm 5 mps 735 mmHg 58%
    13:00 +13°C° 0 mm 5 mps 734 mmHg 57%
    14:00 +13°C° 0 mm 5 mps 733 mmHg 56%
    15:00 +10°C° 0 mm 5 mps 733 mmHg 61%
    16:00 +10°C° 0 mm 4 mps 733 mmHg 67%
    17:00 +7°C° 0 mm 4 mps 733 mmHg 72%
    18:00 +6°C° 0 mm 4 mps 733 mmHg 73%
    19:00 +6°C° 0 mm 4 mps 733 mmHg 73%
    20:00 +5°C° 0 mm 4 mps 733 mmHg 74%
    21:00 +5°C° 0 mm 5 mps 733 mmHg 74%
    22:00 +3°C° 0 mm 5 mps 733 mmHg 75%
    23:00 +3°C° 0 mm 5 mps 733 mmHg 76%

    Day after tomorrow, 16 November, Saturday

    Time Temperature Precipitation Wind Pressure Humidity
    00:00 +3°C° 0 mm 5 mps 732 mmHg 76%
    01:00 +3°C° 0 mm 5 mps 732 mmHg 76%
    02:00 +3°C° 0 mm 5 mps 731 mmHg 76%
    03:00 +2°C° 0 mm 5 mps 731 mmHg 76%
    04:00 +2°C° 0 mm 5 mps 731 mmHg 75%
    05:00 +2°C° 0 mm 5 mps 731 mmHg 75%
    06:00 +3°C° 0 mm 5 mps 731 mmHg 71%
    07:00 +4°C° 0 mm 6 mps 731 mmHg 68%
    08:00 +5°C° 0 mm 7 mps 731 mmHg 64%
    09:00 +8°C° 0 mm 7 mps 730 mmHg 61%
    10:00 +9°C° 0 mm 7 mps 730 mmHg 58%
    11:00 +11°C° 0 mm 8 mps 729 mmHg 55%
    12:00 +12°C° 0 mm 8 mps 729 mmHg 55%
    13:00 +13°C° 0 mm 8 mps 728 mmHg 55%
    14:00 +13°C° 0 mm 8 mps 727 mmHg 55%
    15:00 +12°C° 0 mm 7 mps 727 mmHg 60%
    16:00 +12°C° 0 mm 5 mps 727 mmHg 64%
    17:00 +10°C° 0 mm 4 mps 727 mmHg 69%
    18:00 +10°C° 0 mm 4 mps 727 mmHg 70%
    19:00 +10°C° 0 mm 4 mps 727 mmHg 70%
    20:00 +8°C° 0 mm 4 mps 728 mmHg 71%
    21:00 +8°C° 0 mm 4 mps 728 mmHg 74%
    22:00 +8°C° 0 mm 3 mps 728 mmHg 76%
    23:00 +8°C° 0 mm 2 mps 728 mmHg 78%

    17 November, Sunday

    Time Temperature Precipitation Wind Pressure Humidity
    00:00 +8°C° 0 mm 2 mps 728 mmHg 79%
    01:00 +9°C° 0 mm 1 mps 728 mmHg 79%
    02:00 +9°C° 0 mm 1 mps 728 mmHg 79%
    03:00 +8°C° 0 mm 2 mps 728 mmHg 78%
    04:00 +8°C° 0 mm 3 mps 729 mmHg 76%
    05:00 +7°C° 0 mm 4 mps 729 mmHg 75%
    06:00 +7°C° 0 mm 4 mps 729 mmHg 71%
    07:00 +8°C° 0 mm 5 mps 730 mmHg 68%
    08:00 +8°C° 0 mm 5 mps 730 mmHg 64%
    09:00 +9°C° 0 mm 5 mps 730 mmHg 61%
    10:00 +12°C° 0 mm 4 mps 730 mmHg 57%
    11:00 +13°C° 0 mm 4 mps 729 mmHg 53%
    12:00 +13°C° 0 mm 4 mps 729 mmHg 52%
    13:00 +13°C° 0 mm 4 mps 728 mmHg 52%
    14:00 +14°C° 0 mm 3 mps 727 mmHg 51%
    15:00 +12°C° 0 mm 3 mps 727 mmHg 55%
    16:00 +12°C° 0 mm 2 mps 727 mmHg 59%
    17:00 +9°C° 0 mm 2 mps 726 mmHg 63%
    18:00 +9°C° 0 mm 2 mps 726 mmHg 62%
    19:00 +9°C° 0 mm 2 mps 726 mmHg 61%
    20:00 +8°C° 0 mm 3 mps 726 mmHg 60%
    21:00 +9°C° 0 mm 3 mps 726 mmHg 58%
    22:00 +9°C° 0 mm 3 mps 725 mmHg 56%
    23:00 +9°C° 0 mm 3 mps 725 mmHg 54%

    18 November, Monday

    Time Temperature Precipitation Wind Pressure Humidity
    00:00 +10°C° 0 mm 4 mps 724 mmHg 50%
    01:00 +11°C° 0 mm 4 mps 724 mmHg 47%
    02:00 +11°C° 0 mm 4 mps 724 mmHg 43%
    03:00 +11°C° 0 mm 4 mps 724 mmHg 45%
    04:00 +11°C° 0 mm 4 mps 723 mmHg 46%
    05:00 +10°C° 0 mm 4 mps 723 mmHg 48%
    06:00 +11°C° 0 mm 4 mps 723 mmHg 51%
    07:00 +11°C° 0 mm 4 mps 724 mmHg 54%
    08:00 +12°C° 0 mm 4 mps 724 mmHg 57%
    09:00 +14°C° 0 mm 5 mps 724 mmHg 55%
    10:00 +16°C° 0 mm 6 mps 724 mmHg 52%
    11:00 +18°C° 0 mm 7 mps 723 mmHg 50%
    12:00 +19°C° 0 mm 6 mps 723 mmHg 49%
    13:00 +20°C° 0 mm 6 mps 723 mmHg 48%
    14:00 +20°C° 0 mm 5 mps 722 mmHg 48%
    15:00 +18°C° 0 mm 4 mps 722 mmHg 52%
    16:00 +15°C° 0 mm 4 mps 722 mmHg 57%
    17:00 +13°C° 0 mm 3 mps 722 mmHg 62%
    18:00 +13°C° 0 mm 3 mps 723 mmHg 57%
    19:00 +13°C° 0 mm 4 mps 723 mmHg 52%
    20:00 +13°C° 0 mm 5 mps 724 mmHg 47%
    21:00 +13°C° 0 mm 6 mps 724 mmHg 47%
    22:00 +11°C° 0 mm 7 mps 725 mmHg 46%
    23:00 +11°C° 0 mm 8 mps 726 mmHg 45%

    19 November, Tuesday

    Time Temperature Precipitation Wind Pressure Humidity
    00:00 +10°C° 0 mm 7 mps 726 mmHg 49%
    01:00 +9°C° 0 mm 7 mps 727 mmHg 54%
    02:00 +8°C° 0 mm 6 mps 727 mmHg 58%
    03:00 +7°C° 0 mm 5 mps 728 mmHg 60%
    04:00 +6°C° 0 mm 5 mps 728 mmHg 63%
    05:00 +5°C° 0 mm 4 mps 728 mmHg 66%
    06:00 +6°C° 0 mm 5 mps 729 mmHg 63%
    07:00 +7°C° 0 mm 5 mps 729 mmHg 61%
    08:00 +8°C° 0 mm 6 mps 730 mmHg 59%
    09:00 +10°C° 0 mm 6 mps 730 mmHg 55%
    10:00 +11°C° 0 mm 6 mps 730 mmHg 51%
    11:00 +13°C° 0 mm 6 mps 730 mmHg 47%
    12:00 +14°C° 0 mm 5 mps 729 mmHg 46%
    13:00 +14°C° 0 mm 5 mps 729 mmHg 44%
    14:00 +15°C° 0 mm 5 mps 728 mmHg 43%
    15:00 +13°C° 0 mm 4 mps 728 mmHg 48%
    16:00 +12°C° 0 mm 2 mps 728 mmHg 52%
    17:00 +10°C° 0 mm 1 mps 729 mmHg 57%
    18:00 +9°C° 0 mm 1 mps 729 mmHg 57%
    19:00 +9°C° 0 mm 1 mps 729 mmHg 56%
    20:00 +8°C° 0 mm 1 mps 730 mmHg 56%
    21:00 +6°C° 0 mm 2 mps 730 mmHg 61%
    22:00 +6°C° 0 mm 2 mps 730 mmHg 65%
    23:00 +5°C° 0 mm 2 mps 730 mmHg 70%
    Show more